DW4515 Weather Reports


Display with metric or nautical units.
time (UTC)temp
F
wind
direction
speed
MPH
gust
MPH
rain 1hr
in
rain 24hr
in
rain mn
in
humidity
%
barometer
mb
20220705212034 96 210 16.0 28.0 0.00 0.00 0.00 12 1013.6
20220705211534 94 193 10.0 27.0 0.00 0.00 0.00 12 1013.6
20220705211034 94 197 18.0 27.0 0.00 0.00 0.00 12 1013.6
20220705210034 94 208 20.0 28.0 0.00 0.00 0.00 11 1013.6
20220705205534 94 214 11.0 24.0 0.00 0.00 0.00 11 1013.5
20220705205034 94 234 15.0 22.0 0.00 0.00 0.00 11 1013.5
20220705204534 94 201 8.0 23.0 0.00 0.00 0.00 11 1013.9
20220705204034 93 191 17.0 21.0 0.00 0.00 0.00 11 1013.8
20220705202536 93 184 17.0 23.0 0.00 0.00 0.00 11 1013.8
20220705202034 93 218 12.0 25.0 0.00 0.00 0.00 11 1013.7
20220705200534 94 213 14.0 24.0 0.00 0.00 0.00 11 1014.2
20220705200034 93 184 19.0 29.0 0.00 0.00 0.00 11 1013.7
20220705195534 92 209 19.0 24.0 0.00 0.00 0.00 11 1014.0
20220705195350 92 199 11.0 20.0 0.00 0.00 0.00 11 1013.9
20220705195034 92 208 15.0 24.0 0.00 0.00 0.00 11 1013.9
20220705194534 92 214 14.0 21.0 0.00 0.00 0.00 11 1013.9
20220705194034 92 183 8.0 17.0 0.00 0.00 0.00 11 1014.2
20220705193534 92 183 12.0 20.0 0.00 0.00 0.00 11 1014.2
20220705193036 92 183 17.0 23.0 0.00 0.00 0.00 11 1014.2
20220705192534 92 213 8.0 20.0 0.00 0.00 0.00 11 1014.2
20220705192034 92 174 16.0 18.0 0.00 0.00 0.00 11 1014.2
20220705190534 92 202 9.0 23.0 0.00 0.00 0.00 10 1014.2
20220705190034 92 207 14.0 22.0 0.00 0.00 0.00 10 1014.2
20220705185534 92 207 19.0 23.0 0.00 0.00 0.00 10 1014.2
20220705184534 91 210 12.0 21.0 0.00 0.00 0.00 11 1014.4
20220705183538 91 167 10.0 22.0 0.00 0.00 0.00 11 1014.5
20220705183034 90 168 7.0 11.0 0.00 0.00 0.00 12 1014.3
20220705182534 90 200 6.0 19.0 0.00 0.00 0.00 11 1014.2
20220705181534 90 153 11.0 19.0 0.00 0.00 0.00 12 1014.2
20220705175534 90 167 12.0 19.0 0.00 0.00 0.00 12 1014.2
20220705174034 89 180 15.0 20.0 0.00 0.00 0.00 12 1014.1
20220705173034 89 184 13.0 19.0 0.00 0.00 0.00 12 1014.0
20220705172534 88 175 10.0 19.0 0.00 0.00 0.00 12 1013.9
20220705171534 88 180 17.0 24.0 0.00 0.00 0.00 12 1013.9
20220705171034 88 159 9.0 17.0 0.00 0.00 0.00 12 1014.2
20220705170534 88 168 13.0 20.0 0.00 0.00 0.00 13 1014.2
20220705170034 88 189 9.0 14.0 0.00 0.00 0.00 13 1014.1
20220705165534 88 161 5.0 12.0 0.00 0.00 0.00 13 1014.1
20220705165034 87 157 11.0 19.0 0.00 0.00 0.00 13 1014.1
20220705164036 87 158 7.0 15.0 0.00 0.00 0.00 13 1013.9
20220705163534 87 159 13.0 16.0 0.00 0.00 0.00 13 1013.9
20220705163034 86 162 5.0 15.0 0.00 0.00 0.00 13 1013.9
20220705162534 86 154 6.0 11.0 0.00 0.00 0.00 13 1013.9
20220705162034 86 134 5.0 11.0 0.00 0.00 0.00 13 1014.2
20220705161534 86 165 8.0 13.0 0.00 0.00 0.00 13 1014.1
20220705161034 86 123 10.0 15.0 0.00 0.00 0.00 13 1014.2
20220705160534 86 166 10.0 14.0 0.00 0.00 0.00 13 1014.1
20220705155534 85 174 10.0 14.0 0.00 0.00 0.00 13 1014.0
20220705155034 85 186 8.0 14.0 0.00 0.00 0.00 12 1014.0
20220705153534 85 170 9.0 15.0 0.00 0.00 0.00 13 1013.9
20220705153038 85 143 10.0 13.0 0.00 0.00 0.00 16 1013.9
20220705152534 84 135 9.0 14.0 0.00 0.00 0.00 16 1013.8
20220705151534 84 145 8.0 13.0 0.00 0.00 0.00 17 1013.7
20220705151034 83 133 8.0 12.0 0.00 0.00 0.00 17 1013.7
20220705150834 83 156 8.0 13.0 0.00 0.00 0.00 18 1013.7
20220705150534 83 151 11.0 13.0 0.00 0.00 0.00 19 1013.7
20220705150034 83 127 11.0 15.0 0.00 0.00 0.00 20 1013.6
20220705145034 82 139 11.0 14.0 0.00 0.00 0.00 20 1013.5
20220705144538 82 129 11.0 13.0 0.00 0.00 0.00 22 1013.4
20220705144034 82 126 11.0 14.0 0.00 0.00 0.00 22 1013.1
20220705143534 82 121 11.0 13.0 0.00 0.00 0.00 22 1013.1
20220705142534 81 128 12.0 14.0 0.00 0.00 0.00 24 1013.1
20220705142034 81 124 11.0 14.0 0.00 0.00 0.00 24 1012.9
20220705141034 79 113 9.0 11.0 0.00 0.00 0.00 27 1012.6
20220705140534 79 107 9.0 11.0 0.00 0.00 0.00 28 1012.5
20220705140034 78 112 8.0 9.0 0.00 0.00 0.00 28 1012.5
20220705135034 78 117 5.0 11.0 0.00 0.00 0.00 28 1012.0
20220705132534 74 136 9.0 11.0 0.00 0.00 0.00 33 1011.3
20220705132034 73 109 7.0 11.0 0.00 0.00 0.00 33 1011.2
20220705131534 71 129 9.0 10.0 0.00 0.00 0.00 35 1010.4
20220705131036 70 107 6.0 8.0 0.00 0.00 0.00 35 1010.6
20220705130534 70 115 5.0 8.0 0.00 0.00 0.00 36 1010.2
20220705125534 69 114 7.0 8.0 0.00 0.00 0.00 35 1010.1
20220705124034 70 110 5.0 7.0 0.00 0.00 0.00 35 1010.1
20220705123534 70 106 5.0 8.0 0.00 0.00 0.00 35 1010.1
20220705122534 70 100 8.0 9.0 0.00 0.00 0.00 35 1010.2
20220705121034 70 106 9.0 11.0 0.00 0.00 0.00 35 1010.3
20220705120034 71 107 8.0 11.0 0.00 0.00 0.00 34 1010.1
20220705115534 71 119 11.0 14.0 0.00 0.00 0.00 34 1010.1
20220705114034 71 126 11.0 12.0 0.00 0.00 0.00 34 1010.1
20220705112534 71 105 10.0 11.0 0.00 0.00 0.00 33 1010.2
20220705112034 71 111 8.0 11.0 0.00 0.00 0.00 33 1010.2
20220705111034 72 112 8.0 11.0 0.00 0.00 0.00 32 1009.9
20220705110534 72 114 9.0 11.0 0.00 0.00 0.00 31 1010.0
20220705105534 72 108 9.0 11.0 0.00 0.00 0.00 29 1010.0
20220705105034 72 114 9.0 10.0 0.00 0.00 0.00 30 1009.9
20220705104534 71 117 9.0 10.0 0.00 0.00 0.00 30 1009.8
20220705104036 71 114 8.0 9.0 0.00 0.00 0.00 29 1009.8
20220705103534 72 110 6.0 10.0 0.00 0.00 0.00 29 1009.8
20220705102534 71 123 8.0 8.0 0.00 0.00 0.00 32 1009.8
20220705102034 72 121 7.0 9.0 0.00 0.00 0.00 31 1010.0
20220705101534 73 125 9.0 12.0 0.00 0.00 0.00 31 1010.2
20220705101034 73 129 11.0 13.0 0.00 0.00 0.00 32 1010.2
20220705100534 74 131 10.0 13.0 0.00 0.00 0.00 31 1010.3
20220705100036 74 128 11.0 14.0 0.00 0.00 0.00 31 1010.3
20220705092534 75 110 6.0 8.0 0.00 0.00 0.00 26 1010.5
20220705092034 75 112 5.0 7.0 0.00 0.00 0.00 25 1010.5
20220705091534 75 107 6.0 7.0 0.00 0.00 0.00 25 1010.5
20220705091034 75 108 7.0 8.0 0.00 0.00 0.00 25 1010.5
20220705090534 75 104 6.0 8.0 0.00 0.00 0.00 25 1010.2
20220705090034 75 108 5.0 9.0 0.00 0.00 0.00 26 1010.5
20220705085534 75 104 7.0 8.0 0.00 0.00 0.00 26 1010.2
20220705084534 75 108 7.0 8.0 0.00 0.00 0.00 26 1010.4
20220705083534 75 110 6.0 9.0 0.00 0.00 0.00 26 1010.5
20220705083034 75 118 9.0 10.0 0.00 0.00 0.00 27 1010.4
20220705082534 74 115 8.0 9.0 0.00 0.00 0.00 27 1010.4
20220705081534 74 111 7.0 8.0 0.00 0.00 0.00 27 1010.4
20220705081034 74 112 5.0 8.0 0.00 0.00 0.00 26 1010.3
20220705080036 75 114 8.0 10.0 0.00 0.00 0.00 27 1010.4
20220705073704 74 110 6.0 8.0 0.00 0.00 0.00 27 1010.4
20220705072034 75 117 7.0 8.0 0.00 0.00 0.00 27 1010.4
20220705071534 75 114 6.0 7.0 0.00 0.00 0.00 27 1010.5
20220705071034 75 110 6.0 7.0 0.00 0.00 0.00 26 1010.5
20220705064034 77 119 8.0 8.0 0.00 0.00 0.00 25 1010.9
20220705062034 77 122 4.0 5.0 0.00 0.00 0.00 23 1010.9
20220705061536 79 136 5.0 7.0 0.00 0.00 0.00 24 1011.2
20220705061034 79 138 7.0 8.0 0.00 0.00 0.00 24 1011.2
20220705060534 79 138 6.0 8.0 0.00 0.00 0.00 24 1011.2
20220705060034 79 133 6.0 7.0 0.00 0.00 0.00 23 1011.2
20220705054034 79 109 4.0 7.0 0.00 0.00 0.00 22 1010.9
20220705052534 81 111 5.0 9.0 0.00 0.00 0.00 21 1011.2
20220705052034 82 105 8.0 9.0 0.00 0.00 0.00 20 1011.4
20220705051534 83 121 8.0 11.0 0.00 0.00 0.00 21 1011.7
20220705050034 83 143 8.0 10.0 0.00 0.00 0.00 21 1011.7
20220705045534 83 145 8.0 10.0 0.00 0.00 0.00 21 1011.7
20220705045034 83 144 9.0 10.0 0.00 0.00 0.00 21 1011.7
20220705044036 83 142 9.0 9.0 0.00 0.00 0.00 20 1011.6
20220705042034 82 130 8.0 9.0 0.00 0.00 0.00 19 1011.1
20220705041534 82 130 7.0 8.0 0.00 0.00 0.00 19 1011.2
20220705040034 84 173 3.0 5.0 0.00 0.00 0.00 17 1011.1
20220705035034 85 190 6.0 7.0 0.00 0.00 0.00 17 1011.3
20220705033534 86 201 7.0 8.0 0.00 0.00 0.00 17 1011.2
20220705033034 86 211 5.0 8.0 0.00 0.00 0.00 16 1011.2
20220705032534 87 202 7.0 9.0 0.00 0.00 0.00 16 1011.3
20220705031034 88 207 9.0 11.0 0.00 0.00 0.00 15 1011.1
20220705030534 88 211 9.0 11.0 0.00 0.00 0.00 15 1011.2
20220705025534 89 209 9.0 11.0 0.00 0.00 0.00 15 1011.4
20220705025034 89 214 10.0 16.0 0.00 0.00 0.00 14 1011.5
20220705024034 90 225 12.0 14.0 0.00 0.00 0.00 14 1011.2
20220705022534 91 220 15.0 20.0 0.00 0.00 0.00 14 1011.4
20220705022034 91 218 14.0 18.0 0.00 0.00 0.00 13 1011.4
20220705021034 92 219 12.0 21.0 0.00 0.00 0.00 13 1011.2
20220705020534 92 223 16.0 19.0 0.00 0.00 0.00 14 1011.2
20220705015034 92 210 16.0 20.0 0.00 0.00 0.00 13 1011.3
20220705013034 92 218 16.0 25.0 0.00 0.00 0.00 14 1011.3
20220705012034 92 220 16.0 24.0 0.00 0.00 0.00 15 1011.3
20220705011534 93 214 18.0 21.0 0.00 0.00 0.00 13 1011.4
20220705010034 93 207 14.0 23.0 0.00 0.00 0.00 12 1011.5
20220705005538 93 215 19.0 23.0 0.00 0.00 0.00 12 1011.5
20220705005034 93 205 19.0 24.0 0.00 0.00 0.00 13 1011.4
20220705004534 93 213 19.0 23.0 0.00 0.00 0.00 13 1011.4
20220705003536 94 207 20.0 24.0 0.00 0.00 0.00 12 1011.5
20220705003034 94 217 22.0 28.0 0.00 0.00 0.00 12 1011.5
20220705002534 94 210 18.0 27.0 0.00 0.00 0.00 12 1011.5
20220705002034 94 205 20.0 24.0 0.00 0.00 0.00 12 1011.5
20220705001034 93 210 19.0 22.0 0.00 0.00 0.00 12 1011.8
20220705000534 94 198 17.0 27.0 0.00 0.00 0.00 12 1011.9
20220705000034 94 209 21.0 30.0 0.00 0.00 0.00 12 1011.9
20220704235534 94 193 20.0 24.0 0.00 0.00 0.00 12 1011.9
20220704235036 94 209 20.0 28.0 0.00 0.00 0.00 12 1011.9
20220704234534 94 209 19.0 27.0 0.00 0.00 0.00 11 1011.9
20220704234034 94 208 19.0 24.0 0.00 0.00 0.00 12 1011.9
20220704233534 94 213 18.0 26.0 0.00 0.00 0.00 12 1011.9
20220704232534 94 213 23.0 31.0 0.00 0.00 0.00 12 1011.9
20220704232034 94 219 22.0 28.0 0.00 0.00 0.00 12 1011.9
20220704231534 95 189 18.0 25.0 0.00 0.00 0.00 12 1012.4
20220704231034 94 203 20.0 28.0 0.00 0.00 0.00 13 1012.2
20220704230534 94 226 22.0 30.0 0.00 0.00 0.00 12 1012.3
20220704225534 94 215 21.0 31.0 0.00 0.00 0.00 12 1012.2
20220704225034 94 217 23.0 32.0 0.00 0.00 0.00 12 1012.2
20220704224534 94 218 23.0 32.0 0.00 0.00 0.00 12 1012.2
20220704223534 94 215 22.0 37.0 0.00 0.00 0.00 12 1012.3
20220704222534 94 208 25.0 30.0 0.00 0.00 0.00 13 1012.6
20220704221534 94 218 18.0 30.0 0.00 0.00 0.00 13 1012.7
20220704221036 94 214 26.0 32.0 0.00 0.00 0.00 13 1012.6
20220704220536 94 203 21.0 34.0 0.00 0.00 0.00 13 1012.6
20220704215534 94 196 26.0 31.0 0.00 0.00 0.00 13 1012.6
20220704215034 94 220 24.0 31.0 0.00 0.00 0.00 13 1012.6
20220704213534 93 222 25.0 35.0 0.00 0.00 0.00 13 1012.7